2020-001BQ

Last updated on Thu Jan 16 2020 00:02:07 GMT+0000 (Coordinated Universal Time)

1 44976U 20001BQ 20015.34893100 .00068859 13278-4 14594-3 0 9996 2 44976 52.9982 355.5131 0006551 9.6934 350.4219 15.98920686 1322

Satellite not in orbit